GW6222 Weather Reports


time (UTC)temp
F
wind
direction
speed
knots
gust
knots
rain 1hr
in
rain 24hr
in
rain mn
in
humidity
%
barometer
mb
20260509091549 51 240 0.0 1.7 0.00 0.00 0.00 81 1001.7
20260509084556 51 186 0.0 4.3 0.00 0.00 0.00 76 1001.8
20260509083051 51 196 0.9 1.7 0.00 0.00 0.00 73 1002.0
20260509081551 51 151 0.9 2.6 0.00 0.00 0.00 71 1002.4
20260509080053 51 219 0.0 2.6 0.00 0.00 0.00 68 1002.6
20260509074554 50 204 0.9 2.6 0.00 0.00 0.00 64 1002.7
20260509073048 50 208 0.9 2.6 0.00 0.00 0.00 57 1002.9
20260509071551 50 229 0.9 2.6 0.00 0.00 0.00 51 1003.1
20260509064553 51 224 0.9 1.7 0.00 0.00 0.00 40 1003.2
20260509063049 50 190 0.9 3.5 0.00 0.00 0.00 39 1003.5
20260509061555 50 166 0.9 2.6 0.00 0.00 0.00 39 1003.6
20260509060052 50 0 0.9 2.6 0.00 0.00 0.00 38 1003.7
20260509054614 50 165 0.9 2.6 0.00 0.00 0.00 38 1004.0
20260509053141 50 157 0.0 0.9 0.00 0.00 0.00 37 1003.9
20260509051553 51 149 0.0 1.7 0.00 0.00 0.00 37 1004.0
20260509050053 50 158 0.0 0.9 0.00 0.00 0.00 37 1004.0
20260509044550 50 194 0.0 1.7 0.00 0.00 0.00 36 1004.2
20260509043047 50 144 0.0 0.9 0.00 0.00 0.00 38 1004.3
20260509041551 51 200 0.0 0.9 0.00 0.00 0.00 37 1004.5
20260509040107 51 0 0.0 0.9 0.00 0.00 0.00 37 1004.6
20260509034609 51 206 0.0 1.7 0.00 0.00 0.00 37 1004.8
20260509033052 51 150 0.0 1.7 0.00 0.00 0.00 46 1005.0
20260509031550 51 211 0.0 0.9 0.00 0.00 0.00 40 1005.3
20260509030056 50 0 0.0 0.9 0.00 0.00 0.00 44 1005.3
20260509024552 49 202 0.0 0.9 0.00 0.00 0.00 43 1005.5
20260509023052 48 0 0.0 0.0 0.00 0.00 0.00 65 1005.5
20260509021556 49 0 0.0 0.0 0.00 0.00 0.00 57 1005.5
20260509020050 49 0 0.0 0.0 0.00 0.00 0.00 53 1005.5
20260509014551 50 0 0.0 0.0 0.00 0.00 0.00 53 1005.4
20260509013108 52 0 0.0 0.0 0.00 0.00 0.00 50 1005.4
20260509011608 53 0 0.0 0.0 0.00 0.00 0.00 36 1005.4
20260509010051 54 0 0.0 0.0 0.00 0.00 0.00 35 1005.5
20260509004554 55 0 0.0 0.0 0.00 0.00 0.00 34 1005.6
20260509003123 56 200 0.0 1.7 0.00 0.00 0.00 32 1005.7
20260509001605 57 0 0.0 1.7 0.00 0.00 0.00 32 1005.7
20260509000111 58 0 0.0 1.7 0.00 0.00 0.00 32 1005.9
20260508234553 59 246 0.0 0.9 0.00 0.00 0.00 30 1006.0
20260508233054 59 0 0.0 0.9 0.00 0.00 0.00 35 1005.9
20260508231550 60 0 0.0 0.9 0.00 0.00 0.00 30 1005.9
20260508230050 61 240 0.0 3.5 0.00 0.00 0.00 30 1005.9
20260508224551 61 0 0.0 1.7 0.00 0.00 0.00 33 1006.0
20260508223051 62 0 0.0 0.9 0.00 0.00 0.00 32 1006.0
20260508221554 63 234 0.9 2.6 0.00 0.00 0.00 27 1005.9
20260508220048 64 284 0.9 2.6 0.00 0.00 0.00 25 1006.0
20260508214553 64 215 0.9 3.5 0.00 0.00 0.00 25 1006.0
20260508213056 65 247 0.0 0.9 0.00 0.00 0.00 28 1006.0
20260508211547 64 219 0.9 2.6 0.00 0.00 0.00 26 1006.1
20260508210054 64 303 0.0 3.5 0.00 0.00 0.00 26 1006.2
20260508204552 64 205 0.9 3.5 0.00 0.00 0.00 28 1006.3
20260508203053 64 306 0.0 3.5 0.00 0.00 0.00 27 1006.5
20260508201600 62 200 0.9 4.3 0.00 0.00 0.00 27 1006.7
20260508200059 63 224 0.9 2.6 0.00 0.00 0.00 28 1006.8
20260508194557 63 248 0.0 2.6 0.00 0.00 0.00 28 1007.1
20260508193058 63 229 0.0 4.3 0.00 0.00 0.00 29 1007.2
20260508191555 63 0 0.9 4.3 0.00 0.00 0.00 29 1007.3
20260508190055 63 244 0.0 2.6 0.00 0.00 0.00 29 1007.4
20260508184609 64 217 0.0 7.0 0.00 0.00 0.00 32 1007.6
20260508183103 64 40 0.0 2.6 0.00 0.00 0.00 29 1007.7
20260508181559 63 33 0.0 1.7 0.00 0.00 0.00 30 1008.0
20260508180059 62 218 0.9 3.5 0.00 0.00 0.00 29 1008.2
20260508174601 62 163 0.9 5.2 0.00 0.00 0.00 29 1008.3
20260508173057 63 193 0.9 3.5 0.00 0.00 0.00 30 1008.7
20260508171558 63 84 0.9 2.6 0.00 0.00 0.00 29 1009.0
20260508170057 62 206 0.0 3.5 0.00 0.00 0.00 31 1009.3
20260508164553 61 236 1.7 4.3 0.00 0.00 0.00 27 1009.4
20260508163112 61 0 0.0 2.6 0.00 0.00 0.00 33 1009.5
20260508161550 59 80 0.0 2.6 0.00 0.00 0.00 32 1009.5
20260508160052 61 296 0.0 2.6 0.00 0.00 0.00 30 1009.8
20260508154558 59 186 0.9 4.3 0.00 0.00 0.00 33 1009.9
20260508153057 60 317 0.0 3.5 0.00 0.00 0.00 32 1009.9
20260508151557 60 142 0.0 3.5 0.00 0.00 0.00 32 1009.9
20260508150057 59 225 0.9 3.5 0.00 0.00 0.00 33 1010.0
20260508144555 60 155 0.0 1.7 0.00 0.00 0.00 36 1010.0
20260508143058 57 78 0.9 4.3 0.00 0.00 0.00 40 1010.1
20260508141603 57 198 0.9 3.5 0.00 0.00 0.00 35 1010.2
20260508140058 57 242 0.0 3.5 0.00 0.00 0.00 40 1010.1
20260508134600 56 236 0.9 2.6 0.00 0.00 0.00 43 1010.2
20260508133106 54 212 0.0 1.7 0.00 0.00 0.00 51 1010.3
20260508131602 52 160 0.9 2.6 0.00 0.00 0.00 54 1010.6
20260508130110 51 166 0.9 3.5 0.00 0.00 0.00 53 1010.5
20260508124608 50 192 0.0 2.6 0.00 0.00 0.00 58 1010.6
20260508123059 50 194 0.0 1.7 0.00 0.00 0.00 59 1010.6
20260508121551 51 0 0.0 0.9 0.00 0.00 0.00 62 1010.4
20260508120057 49 0 0.0 0.0 0.00 0.00 0.00 70 1010.4
20260508114553 43 0 0.0 0.0 0.00 0.00 0.00 84 1010.2
20260508113107 38 0 0.0 0.0 0.00 0.00 0.00 86 1010.2
20260508111549 36 0 0.0 0.0 0.00 0.00 0.00 91 1010.0
20260508110100 33 0 0.0 0.0 0.00 0.00 0.00 93 1010.0
20260508104549 32 0 0.0 0.9 0.00 0.00 0.00 93 1010.0
20260508103050 32 0 0.0 0.0 0.00 0.00 0.00 93 1009.9
20260508101553 32 0 0.0 0.9 0.00 0.00 0.00 93 1010.0
20260508100048 31 0 0.0 0.0 0.00 0.00 0.00 92 1010.0
20260508094554 31 0 0.0 0.9 0.00 0.00 0.00 91 1010.1
20260508093101 32 0 0.0 0.0 0.00 0.00 0.00 92 1010.2